Location: Sigmaringen
(48.0900°N, 9.2120°E)
Time: 15:57:29
(UTC+01:00)

ISS - Visible Passes

Search period start: 23 November 2017 00:00
Search period end: 03 December 2017 00:00
Orbit: 402 x 407 km, 51.6° (Epoch: 24 November)

Date Brightness Start Highest point End Pass type
(mag) Time Alt. Az. Time Alt. Az. Time Alt. Az.
27 Nov -1.1 19:07:08 10° SSW 19:07:51 15° SSW 19:07:51 15° SSW visible
28 Nov -2.1 18:15:24 10° S 18:17:50 21° SE 18:17:50 21° SE visible
29 Nov -1.5 17:24:18 10° SSE 17:25:48 13° SE 17:27:18 10° ESE visible
29 Nov -2.2 18:58:30 10° SW 19:00:25 32° SW 19:00:25 32° SW visible
30 Nov -3.1 18:06:21 10° SW 18:09:27 40° SSE 18:10:15 33° ESE visible
30 Nov -0.3 19:42:38 10° W 19:42:54 12° W 19:42:54 12° W visible
01 Dec -2.3 17:14:26 10° SSW 17:17:11 25° SE 17:19:56 10° E visible
01 Dec -2.9 18:50:08 10° WSW 18:52:40 49° W 18:52:40 49° W visible
02 Dec -3.9 17:57:44 10° WSW 18:01:01 76° SSE 18:02:23 32° ENE visible
02 Dec -0.6 19:34:28 10° W 19:35:02 14° WNW 19:35:02 14° WNW visible
